Regional Weather Roundup
Issued by NWS

Home | Current Version | Previous Version | Text Only | Print | Product List | Glossary Off
Versions: 1 2 3 4 5 6 7 8 9 10 11 12 13 14 15 16 17 18 19 20 21 22 23 24 25 26 27 28 29 30 31 32 33 34 35 36 37 38 39 40 41 42 43 44 45 46 47 48 49 50

000
ASUS43 KBIS 021010
RWRND

NORTH DAKOTA REGIONAL WEATHER ROUNDUP
NATIONAL WEATHER SERVICE BISMARCK ND
400 AM CST FRI DEC 02 2016

NOTE: "FAIR" INDICATES FEW OR NO CLOUDS BELOW 12,000 FEET WITH NO
SIGNIFICANT WEATHER AND/OR OBSTRUCTIONS TO VISIBILITY.


NDZ001>003-009>011-017-021100-
NORTHWEST NORTH DAKOTA

CITY           SKY/WX    TMP DP  RH WIND       PRES   REMARKS
WILLISTON      CLOUDY    28  23  81 SE3       30.13R
MINOT          CLOUDY    27  21  78 S6        30.15R
MINOT AFB      CLOUDY    26  20  76 SW6       30.15R WCI  19
$$

NDZ018>021-031>035-040>046-021100-
SOUTHWEST NORTH DAKOTA

CITY           SKY/WX    TMP DP  RH WIND       PRES   REMARKS
BISMARCK       CLOUDY    26  22  84 NE3       30.18R
DICKINSON      CLOUDY    23  20  88 SE3       30.09R
GARRISON         N/A     24  20  84 SE3       30.15S
HETTINGER ARPT CLOUDY    24  20  84 S3        30.11S
$$

NDZ004>008-012>016-024-026-027-054-021100-
NORTHEAST NORTH DAKOTA

CITY           SKY/WX    TMP DP  RH WIND       PRES   REMARKS
GRAND FORKS    CLOUDY    29  22  75 N12       30.18R WCI  19
GRND FRKS AFB  CLOUDY    28  22  79 N12       30.18R WCI  18
DEVILS LAKE    CLOUDY    27  22  81 N7        30.16S WCI  19
$$

NDZ022-023-025-028>030-036>039-047>053-021100-
SOUTHEAST NORTH DAKOTA

CITY           SKY/WX    TMP DP  RH WIND       PRES   REMARKS
FARGO          CLOUDY    29  22  75 N13       30.16S WCI  19
JAMESTOWN      CLOUDY    26  20  77 N10       30.15R WCI  16
$$





USA.gov is the U.S. government's official web portal to all federal, state and local government web resources and services.